Snowfall_Accumulation
0.0 0.0 0.0 0.0 0.0 0.0 0.0 0.0 0.0 0.0 0.0 0.0 0.0 0.0 0.0 0.0 0.0 0.0 0.0 0.0 0.0 0.0 0.0 0.0 0.0 0.0 0.0 0.0 0.0 0.0 0.0 0.0 0.0 0.0 0.0 0.0 0.0 0.0 0.0 0.0 0.0 0.0 0.0 0.0
0.2 0.1 0.0 0.0 0.0 0.0 0.0 0.1 0.1 0.0 0.0 0.0 0.0 0.0 0.0 0.0 0.0 0.0 0.0 0.0 0.0 0.0 0.0 0.0 0.0 0.0 0.0 0.0 0.0 0.0 0.0 0.0 0.0 0.0 0.0 0.0 0.0 0.0 0.0 0.0 0.0 0.0 0.0 0.0
0.3 0.0 0.0 0.0 0.0 0.0 0.0 0.1 0.1 0.0 0.0 0.0 0.0 0.0 0.0 0.0 0.0 0.0 0.0 0.0 0.0 0.0 0.0 0.0 0.0 0.0 0.0 0.0 0.0 0.0 0.0 0.0 0.0 0.0 0.0 0.0 0.0 0.0 0.0 0.0 0.0 0.0 0.0 0.0
0.1 0.0 0.0 0.0 0.0 0.0 0.1 0.0 0.0 0.0 0.4 0.5 0.0 0.7 0.0 0.0 0.0 0.0 0.0 0.0 0.0 0.0 0.0 0.0 0.0 0.0 0.0 0.0 0.0 0.0 0.0 0.0 0.0 0.0 0.0 0.0 0.0 0.0 0.0 0.0 0.0 0.0 0.0 0.0
0.2 0.0 0.0 0.0 0.0 0.0 0.0 0.0 0.0 0.0 0.2 0.2 0.0 0.5 0.0 0.0 0.0 0.0 0.0 0.0 0.0 0.0 0.0 0.0 0.0 0.0 0.0 0.0 0.0 0.0 0.0 0.0 0.0 0.0 0.0 0.0 0.0 0.0 0.0 0.0 0.0 0.0 0.0 0.0
0.0 0.0 0.0 0.0 0.0 0.0 0.0 0.0 0.0 0.0 0.2 6.3 0.0 0.0 0.0 0.0 0.0 0.0 0.0 0.0 0.0 0.0 0.0 0.0 0.0 0.0 0.0 0.0 0.0 0.0 0.0 0.0 0.0 0.0 0.0 0.0 0.0 0.0 0.0 0.0 0.0 0.0 0.0 0.0
0.1 0.1 0.0 0.0 0.1 0.0 0.1 1.1 15.0 18.1 22.8 7.2 0.0 0.1 0.0 0.0 0.0 0.0 0.0 0.0 0.0 0.0 0.0 0.0 0.0 0.0 0.0 0.0 0.0 0.0 0.0 0.0 0.0 0.0 0.0 0.0 0.0 0.0 0.0 0.0 0.0 0.0 0.0 0.0
5.4 10.7 0.1 0.0 0.0 0.3 0.2 0.6 5.9 6.4 6.4 1.6 0.0 0.3 0.0 0.0 0.0 0.0 0.0 0.0 0.0 0.0 0.0 0.0 0.0 0.0 0.0 0.0 0.0 0.0 0.0 0.0 0.0 0.0 0.0 0.0 0.0 0.0 0.0 0.0 0.0 0.0 0.0 0.0
5.9 3.4 0.0 0.0 0.0 0.0 1.9 4.5 0.0 3.3 2.0 2.1 0.2 0.0 0.0 0.0 0.0 0.0 0.0 0.0 0.0 0.0 0.0 0.0 0.0 0.0 0.0 0.0 0.0 0.0 0.0 0.0 0.0 0.0 0.0 0.0 0.0 0.0 0.0 0.0 0.0 0.0 0.0 0.0
3.7 8.5 1.4 0.2 0.3 0.1 0.2 0.0 4.1 4.4 11.2 4.3 1.1 0.3 0.6 0.1 0.0 0.0 0.0 0.0 0.0 0.0 0.0 0.0 0.0 0.0 0.0 0.0 0.0 0.0 0.0 0.0 0.0 0.0 0.0 0.0 0.0 0.0 0.0 0.0 0.0 0.0 0.0 0.0
2.0 4.2 4.5 0.7 2.1 0.6 0.5 1.9 0.1 0.4 1.6 5.6 5.3 1.3 0.3 0.2 0.0 0.1 0.0 0.0 0.0 0.0 0.0 0.0 0.0 0.0 0.0 0.0 0.0 0.0 0.0 0.0 0.0 0.0 0.0 0.0 0.0 0.0 0.0 0.0 0.0 0.0 0.0 0.0
0.2 2.4 5.4 5.3 0.5 0.0 0.0 0.1 0.2 3.2 4.3 1.9 3.3 3.1 0.2 0.3 0.2 0.1 0.1 0.0 0.0 0.0 0.0 0.0 0.0 0.0 0.0 0.0 0.0 0.0 0.0 0.0 0.0 0.0 0.0 0.0 0.0 0.0 0.0 0.0 0.0 0.0 0.0 0.0
0.1 4.3 9.8 8.6 3.9 0.5 1.3 0.0 0.1 0.5 1.5 3.2 10.8 4.7 0.3 0.2 0.8 0.3 0.5 0.5 0.4 0.1 0.1 0.1 0.0 0.0 0.0 0.0 0.0 0.0 0.0 0.0 0.0 0.0 0.0 0.0 0.0 0.0 0.0 0.0 0.0 0.0 0.0 0.0
nan 3.6 4.3 2.8 1.7 0.5 3.0 1.3 0.2 1.4 9.1 2.3 3.0 4.8 2.1 3.6 3.1 1.4 1.9 1.9 1.8 1.5 1.3 0.7 0.5 0.5 0.2 0.2 0.1 0.0 0.0 0.0 0.0 0.0 0.0 0.0 0.0 0.0 0.0 0.0 0.0 0.0 0.0 0.0
0.0 6.5 3.2 2.3 0.7 0.3 1.0 2.0 2.6 3.5 0.5 6.7 2.4 3.6 2.7 2.8 3.7 3.9 1.9 1.4 2.4 3.8 3.1 2.5 2.4 2.1 1.3 0.8 0.8 0.2 0.0 0.2 0.0 0.0 0.0 0.0 0.0 0.0 0.0 0.0 0.0 0.0 0.0 0.0
0.0 3.4 2.3 5.0 2.1 1.2 2.8 1.2 1.5 2.5 2.3 2.8 2.3 3.2 1.3 0.3 0.6 2.4 2.4 2.2 1.9 1.9 3.2 3.2 2.2 2.0 2.0 2.1 1.0 0.1 1.2 0.1 0.0 0.1 0.0 0.0 0.0 0.0 0.0 0.0 0.0 0.0 0.0 0.0
0.2 2.0 8.2 16.1 2.8 4.3 13.5 1.9 1.3 1.5 0.8 0.9 3.1 2.4 0.4 0.9 0.4 0.9 0.8 0.7 1.8 0.4 0.2 1.2 0.9 1.6 2.0 1.0 0.4 0.6 0.1 0.2 0.0 0.0 0.7 0.5 0.7 0.5 0.2 0.3 0.0 0.0 0.0 0.0
0.4 1.1 2.4 15.9 7.4 40.5 3.4 0.3 0.4 1.5 1.1 0.7 0.7 0.8 0.2 0.2 0.1 0.0 0.0 0.0 0.1 0.2 0.1 0.0 0.0 0.1 0.4 0.6 1.0 0.2 0.0 0.0 0.1 0.0 0.1 0.1 0.1 0.6 0.6 0.1 0.1 0.1 0.0 0.0
0.0 0.2 15.8 27.5 15.0 1.3 0.6 0.3 1.0 0.4 1.0 0.4 0.5 0.2 0.0 0.0 0.0 0.0 0.0 0.0 0.0 0.0 0.2 0.3 0.1 0.0 0.0 0.0 0.2 0.2 0.2 0.3 0.2 0.2 0.2 0.2 0.2 0.4 0.1 0.1 0.1 0.1 0.1 0.1
0.0 0.0 1.0 22.9 20.0 21.4 0.3 0.0 0.0 0.0 1.5 0.1 0.0 0.0 0.0 0.0 0.2 0.1 0.0 0.0 0.0 0.0 0.0 0.0 0.0 0.0 0.0 0.0 0.0 0.0 0.1 0.1 0.5 0.5 0.4 0.2 0.1 0.2 0.2 0.1 0.2 0.2 0.2 0.2
10.1 14.2 24.9 19.5 16.9 4.6 0.0 0.0 0.0 2.8 0.3 0.0 0.0 0.0 0.0 0.0 0.0 0.0 0.0 0.0 0.0 0.0 0.0 0.1 0.1 0.0 0.2 0.3 0.3 0.3 0.3 0.2 0.3 0.6 0.5 0.4 0.3 0.3 0.1 0.2 0.2 0.3 0.4 0.4
4.2 13.6 24.5 15.4 19.0 25.5 0.0 0.0 0.0 0.0 0.0 0.0 0.0 0.0 0.0 0.0 0.0 0.0 0.0 0.0 0.0 0.1 0.1 0.1 0.1 0.2 0.2 0.3 0.2 0.3 0.2 0.4 0.8 1.1 1.2 1.2 1.1 0.6 0.5 1.1 0.9 1.4 1.0 1.4
5.9 0.6 3.5 0.6 2.0 0.0 0.0 0.0 0.0 0.0 0.0 0.0 0.0 0.0 0.0 0.0 0.0 0.0 0.0 0.0 0.0 0.1 0.1 0.3 0.5 1.0 1.0 1.8 1.3 1.6 1.6 1.7 2.5 3.0 3.9 3.1 2.7 2.0 1.5 1.8 1.7 2.8 1.8 2.7
0.2 0.2 2.8 2.5 0.4 0.0 0.0 0.0 0.0 0.0 0.0 0.0 0.0 0.0 0.0 0.0 0.0 0.0 0.0 0.0 0.0 0.5 0.9 1.2 1.7 2.6 3.2 2.6 2.8 2.4 2.3 2.6 5.2 4.9 3.5 2.5 2.8 2.1 2.0 2.3 2.2 3.1 3.2 3.0
0.9 0.8 2.7 1.8 0.5 0.4 0.1 0.0 0.0 0.0 0.0 0.0 0.0 0.0 0.0 0.0 0.0 0.0 0.1 0.2 0.3 0.9 2.0 3.1 4.8 5.3 4.9 4.7 4.6 5.2 4.2 3.5 4.0 4.9 3.8 3.5 3.5 3.0 2.6 2.2 2.8 2.9 1.6 2.9
1.0 1.3 1.7 1.4 0.4 0.2 0.0 0.1 0.1 0.1 0.0 0.0 0.1 0.2 0.3 0.3 0.3 0.6 1.0 0.7 1.0 1.8 2.3 3.5 3.9 4.0 4.7 5.3 5.7 6.6 6.8 5.0 5.1 3.7 4.9 3.8 4.0 3.3 3.1 3.8 3.9 nan nan nan
Water_Equivalent
0.00 0.00 0.00 0.00 0.00 0.00 0.00 0.00 0.00 0.00 0.00 0.00 0.00 0.00 0.00 0.00 0.00 0.00 0.00 0.00 0.00 0.00 0.00 0.00 0.00 0.00 0.00 0.00 0.00 0.00 0.00 0.00 0.00 0.00 0.00 0.00 0.00 0.00 0.00 0.00 0.00 0.00 0.00 0.00
0.05 0.02 0.00 0.00 0.00 0.00 0.00 0.02 0.03 0.00 0.00 0.00 0.00 0.00 0.00 0.00 0.00 0.00 0.00 0.00 0.00 0.00 0.00 0.00 0.00 0.00 0.00 0.00 0.00 0.00 0.00 0.00 0.00 0.00 0.00 0.00 0.00 0.00 0.00 0.00 0.00 0.00 0.00 0.00
0.08 0.00 0.00 0.00 0.00 0.00 0.00 0.02 0.01 0.00 0.00 0.00 0.00 0.00 0.00 0.00 0.00 0.00 0.00 0.00 0.00 0.00 0.00 0.00 0.00 0.00 0.00 0.00 0.00 0.00 0.00 0.00 0.00 0.00 0.00 0.00 0.00 0.00 0.00 0.00 0.00 0.00 0.00 0.00
0.02 0.00 0.00 0.00 0.00 0.00 0.02 0.00 0.00 0.00 0.10 0.10 0.00 0.14 0.00 0.00 0.00 0.00 0.00 0.00 0.00 0.00 0.00 0.00 0.00 0.00 0.00 0.00 0.00 0.00 0.00 0.00 0.00 0.00 0.00 0.00 0.00 0.00 0.00 0.00 0.00 0.00 0.00 0.00
0.04 0.00 0.00 0.00 0.00 0.00 0.00 0.00 0.00 0.00 0.05 0.03 0.01 0.09 0.00 0.00 0.00 0.00 0.00 0.00 0.00 0.00 0.00 0.00 0.00 0.00 0.00 0.00 0.00 0.00 0.00 0.00 0.00 0.00 0.00 0.00 0.00 0.00 0.00 0.00 0.00 0.00 0.00 0.00
0.00 0.00 0.00 0.00 0.00 0.00 0.00 0.00 0.00 0.00 0.05 1.17 0.01 0.01 0.00 0.00 0.00 0.00 0.00 0.00 0.00 0.00 0.00 0.00 0.00 0.00 0.00 0.00 0.00 0.00 0.00 0.00 0.00 0.00 0.00 0.00 0.00 0.00 0.00 0.00 0.00 0.00 0.00 0.00
0.04 0.02 0.00 0.00 0.03 0.00 0.01 0.23 2.71 3.24 3.98 1.23 0.00 0.02 0.00 0.00 0.00 0.00 0.00 0.00 0.00 0.00 0.00 0.00 0.00 0.00 0.00 0.00 0.00 0.00 0.00 0.00 0.00 0.00 0.00 0.00 0.00 0.00 0.00 0.00 0.00 0.00 0.00 0.00
1.14 2.05 0.04 0.00 0.01 0.08 0.04 0.14 1.13 0.85 0.91 0.31 0.00 0.06 0.00 0.00 0.00 0.00 0.00 0.00 0.00 0.00 0.00 0.00 0.00 0.00 0.00 0.00 0.00 0.00 0.00 0.00 0.00 0.00 0.00 0.00 0.00 0.00 0.00 0.00 0.00 0.00 0.00 0.00
1.09 0.64 0.01 0.00 0.00 0.00 0.38 0.79 0.00 0.55 0.42 0.42 0.06 0.00 0.00 0.00 0.00 0.00 0.00 0.00 0.00 0.00 0.00 0.00 0.00 0.00 0.00 0.00 0.00 0.00 0.00 0.00 0.00 0.00 0.00 0.00 0.00 0.00 0.00 0.00 0.00 0.00 0.00 0.00
0.85 1.25 0.38 0.04 0.06 0.01 0.06 0.00 0.82 0.93 1.73 0.66 0.32 0.04 0.09 0.01 0.00 0.00 0.00 0.00 0.00 0.00 0.00 0.00 0.00 0.00 0.00 0.00 0.00 0.00 0.00 0.00 0.00 0.00 0.00 0.00 0.00 0.00 0.00 0.00 0.00 0.00 0.00 0.00
0.73 0.72 0.86 0.16 0.55 0.18 0.12 0.44 0.02 0.11 0.44 0.85 0.91 0.17 0.07 0.04 0.01 0.02 0.00 0.00 0.00 0.00 0.00 0.00 0.00 0.00 0.00 0.00 0.00 0.00 0.00 0.00 0.00 0.00 0.00 0.00 0.00 0.00 0.00 0.00 0.00 0.00 0.00 0.00
0.05 0.49 0.92 0.97 0.14 0.00 0.00 0.02 0.04 0.58 0.80 0.36 0.55 0.39 0.05 0.07 0.05 0.03 0.02 0.01 0.01 0.01 0.01 0.00 0.00 0.00 0.00 0.00 0.00 0.00 0.00 0.00 0.00 0.00 0.00 0.00 0.00 0.00 0.00 0.00 0.00 0.00 0.00 0.00
0.02 0.94 1.85 1.63 0.77 0.13 0.32 0.00 0.02 0.08 0.25 0.44 1.58 0.60 0.09 0.05 0.18 0.06 0.12 0.12 0.08 0.02 0.02 0.02 0.01 0.01 0.01 0.00 0.00 0.00 0.00 0.00 0.00 0.00 0.00 0.00 0.00 0.00 0.00 0.00 0.00 0.00 0.00 0.00
nan 0.75 0.74 0.43 0.28 0.11 0.58 0.28 0.06 0.23 1.69 0.39 0.51 0.76 0.37 0.73 0.55 0.31 0.44 0.48 0.46 0.37 0.32 0.19 0.13 0.11 0.07 0.04 0.02 0.00 0.00 0.00 0.00 0.00 0.00 0.00 0.00 0.00 0.00 0.00 0.00 0.00 0.00 0.00
0.01 1.31 0.67 0.46 0.15 0.07 0.19 0.37 0.51 0.65 0.10 1.10 0.39 0.73 0.46 0.53 0.68 0.85 0.44 0.29 0.52 1.12 0.87 0.61 0.64 0.55 0.31 0.21 0.21 0.08 0.01 0.06 0.00 0.00 0.00 0.00 0.00 0.00 0.00 0.00 0.00 0.00 0.00 0.00
0.00 0.82 0.42 0.93 0.41 0.26 0.46 0.22 0.30 0.47 0.45 0.55 0.44 0.54 0.29 0.06 0.14 0.47 0.46 0.46 0.41 0.42 0.93 0.97 0.55 0.56 0.45 0.52 0.24 0.03 0.48 0.05 0.00 0.04 0.01 0.00 0.00 0.00 0.00 0.00 0.00 0.00 0.00 0.00
0.04 0.46 2.43 3.86 0.48 0.73 2.43 0.29 0.22 0.27 0.18 0.19 0.52 0.43 0.10 0.22 0.09 0.17 0.15 0.14 0.29 0.07 0.04 0.19 0.15 0.47 0.40 0.23 0.11 0.12 0.02 0.04 0.00 0.00 0.26 0.16 0.24 0.18 0.07 0.13 0.01 0.00 0.00 0.00
0.09 0.24 0.75 3.71 1.92 6.89 0.59 0.07 0.09 0.27 0.22 0.16 0.15 0.18 0.05 0.05 0.03 0.01 0.00 0.01 0.02 0.04 0.01 0.00 0.00 0.01 0.06 0.10 0.25 0.09 0.01 0.00 0.03 0.01 0.02 0.04 0.03 0.22 0.23 0.03 0.03 0.02 0.01 0.01
0.00 0.05 3.22 5.18 2.98 0.21 0.10 0.06 0.17 0.06 0.16 0.09 0.11 0.05 0.01 0.00 0.00 0.00 0.00 0.00 0.00 0.00 0.04 0.05 0.01 0.00 0.00 0.01 0.03 0.03 0.04 0.08 0.05 0.07 0.05 0.06 0.07 0.10 0.04 0.04 0.03 0.03 0.03 0.03
0.00 0.00 0.26 5.03 4.61 3.20 0.05 0.00 0.00 0.00 0.26 0.02 0.00 0.00 0.00 0.00 0.04 0.01 0.00 0.00 0.00 0.00 0.00 0.00 0.01 0.01 0.01 0.00 0.00 0.01 0.02 0.03 0.08 0.09 0.07 0.05 0.04 0.05 0.04 0.04 0.05 0.06 0.05 0.06
2.62 3.78 5.69 4.38 3.82 1.13 0.00 0.00 0.00 0.52 0.05 0.02 0.00 0.00 0.00 0.00 0.00 0.00 0.00 0.00 0.00 0.00 0.01 0.02 0.02 0.01 0.05 0.07 0.07 0.07 0.07 0.05 0.07 0.11 0.11 0.10 0.07 0.09 0.04 0.06 0.07 0.10 0.13 0.10
0.79 2.76 5.11 3.22 3.96 4.24 0.00 0.00 0.00 0.00 0.00 0.01 0.00 0.00 0.00 0.00 0.00 0.00 0.00 0.00 0.00 0.01 0.02 0.03 0.02 0.03 0.04 0.06 0.04 0.05 0.04 0.07 0.14 0.18 0.21 0.23 0.28 0.17 0.13 0.35 0.24 0.44 0.31 0.39
1.14 0.15 0.97 0.14 0.58 0.00 0.00 0.00 0.00 0.00 0.00 0.00 0.00 0.00 0.00 0.00 0.00 0.00 0.00 0.00 0.00 0.01 0.02 0.04 0.09 0.15 0.13 0.26 0.19 0.22 0.22 0.23 0.32 0.51 0.73 0.67 0.59 0.51 0.45 0.60 0.46 0.76 0.53 0.73
0.05 0.07 0.76 0.60 0.13 0.01 0.00 0.00 0.00 0.00 0.00 0.00 0.00 0.00 0.00 0.00 0.00 0.00 0.00 0.00 0.00 0.07 0.12 0.15 0.21 0.28 0.31 0.28 0.30 0.31 0.28 0.32 0.97 0.94 0.54 0.42 0.53 0.43 0.46 0.60 0.64 0.93 0.86 0.75
0.22 0.19 0.51 0.41 0.09 0.09 0.03 0.00 0.00 0.00 0.00 0.00 0.00 0.00 0.00 0.00 0.00 0.00 0.02 0.05 0.04 0.10 0.20 0.31 0.43 0.45 0.44 0.38 0.38 0.49 0.42 0.44 0.59 0.70 0.41 0.48 0.63 0.64 0.41 0.36 0.65 0.65 0.34 0.79
0.18 0.20 0.35 0.33 0.07 0.04 0.01 0.04 0.02 0.02 0.01 0.01 0.02 0.04 0.06 0.05 0.05 0.09 0.13 0.09 0.12 0.19 0.23 0.30 0.33 0.32 0.35 0.41 0.46 0.59 0.75 0.68 0.70 0.43 0.61 0.55 0.57 0.51 0.48 0.56 0.63 nan nan nan
SL_Ratio
nan nan nan nan nan nan nan nan nan nan nan nan nan nan nan nan nan nan nan nan nan nan nan nan nan nan nan nan nan nan nan nan nan nan nan nan nan nan nan nan nan nan nan nan
3.3 3.8 nan nan nan nan nan 3.6 4.3 nan nan nan nan nan nan nan nan nan nan nan nan nan nan nan nan nan nan nan nan nan nan nan nan nan nan nan nan nan nan nan nan nan nan nan
3.6 nan nan nan nan nan nan 4.4 4.6 4.2 nan nan nan nan nan nan nan nan nan nan nan nan nan nan nan nan nan nan nan nan nan nan nan nan nan nan nan nan nan nan nan nan nan nan
4.3 nan nan nan nan nan 3.0 nan nan 5.0 3.9 5.3 nan 5.3 nan nan nan nan nan nan nan nan nan nan nan nan nan nan nan nan nan nan nan nan nan nan nan nan nan nan nan nan nan nan
3.6 nan 2.5 nan nan nan 5.0 nan nan nan 4.1 5.2 4.1 5.8 nan nan 5.0 nan nan nan nan nan nan nan nan nan nan nan nan nan nan nan nan nan nan nan nan nan nan nan nan nan nan nan
0.0 nan nan nan nan nan nan nan nan 5.0 4.3 5.4 5.0 4.4 nan 10.0 nan nan nan nan nan nan nan nan nan nan nan nan nan nan nan nan nan nan nan nan nan nan nan nan nan nan nan nan
2.8 4.0 nan nan 5.0 nan 4.3 5.0 5.6 5.6 5.7 5.8 nan 5.4 5.0 nan nan nan nan nan nan nan nan nan nan nan nan nan nan nan nan nan nan nan nan nan nan nan nan nan nan nan nan nan
4.8 5.2 3.8 nan 5.0 4.0 4.5 4.5 5.2 7.6 7.1 5.4 nan 4.9 nan nan nan nan nan nan nan nan nan nan nan nan nan nan nan nan nan nan nan nan nan nan nan nan nan nan nan nan nan nan
5.4 5.3 3.1 nan nan nan 5.0 5.6 5.0 6.0 4.7 5.0 3.4 5.0 nan nan nan nan nan nan nan nan nan nan nan nan nan nan nan nan nan nan nan nan nan nan nan nan nan nan nan nan nan nan
4.3 6.8 3.7 4.1 4.4 4.3 4.2 nan 5.0 4.7 6.5 6.5 3.5 6.1 6.0 5.3 nan nan nan nan nan nan nan nan nan nan nan nan nan nan nan nan nan nan nan nan nan nan nan nan nan nan nan nan
2.8 5.8 5.2 4.0 3.8 3.4 4.0 4.3 4.3 3.5 3.7 6.5 5.9 7.7 4.9 4.7 4.6 4.8 5.0 nan nan nan nan nan nan nan nan nan nan nan nan nan nan nan nan nan nan nan nan nan nan nan nan nan
3.1 4.9 5.8 5.5 3.7 5.0 nan 5.4 5.6 5.6 5.4 5.2 6.1 7.8 4.0 4.2 4.3 4.6 5.0 4.6 5.0 5.4 5.0 nan nan nan nan nan nan nan nan nan nan nan nan nan nan nan nan nan nan nan nan nan
4.0 4.5 5.3 5.3 5.1 3.8 3.9 5.0 4.2 5.8 5.8 7.3 6.8 7.7 3.6 4.5 4.4 4.5 4.5 4.1 4.8 5.4 5.2 5.3 4.4 5.4 5.9 5.0 nan nan nan nan nan nan nan nan nan nan nan nan nan nan nan nan
nan 4.8 5.8 6.6 6.1 4.4 5.2 4.7 4.1 6.1 5.4 5.8 6.0 6.3 5.7 5.0 5.6 4.7 4.3 3.9 4.0 4.2 4.0 3.8 3.9 4.0 3.6 3.7 3.0 0.0 nan nan nan nan nan nan nan nan nan nan nan nan nan nan
4.4 4.9 4.8 5.1 4.9 5.1 5.4 5.3 5.0 5.4 4.6 6.0 6.3 5.0 6.0 5.2 5.4 4.6 4.4 4.7 4.7 3.4 3.5 4.0 3.7 3.9 4.3 3.7 3.9 2.8 2.9 3.0 3.3 5.0 nan nan nan nan nan nan nan nan nan nan
nan 4.1 5.5 5.4 5.2 4.8 6.0 5.6 4.8 5.4 5.1 5.2 5.2 6.0 4.4 4.3 4.4 5.1 5.2 4.8 4.8 4.6 3.5 3.3 4.0 3.6 4.4 4.1 4.2 3.5 2.6 2.7 2.1 3.2 3.9 5.0 nan 5.0 nan nan nan nan nan nan
4.5 4.3 3.4 4.2 5.8 6.0 5.6 6.4 5.8 5.6 4.7 4.6 5.9 5.6 4.4 4.2 4.3 5.2 5.3 5.2 6.0 5.3 5.7 6.0 5.7 3.4 5.0 4.4 3.4 5.5 3.4 4.7 2.5 2.5 2.8 3.1 2.9 2.7 3.4 2.5 2.7 1.7 nan 2.5
4.3 4.5 3.3 4.3 3.9 5.9 5.8 4.5 4.8 5.5 4.8 4.5 4.7 4.7 4.1 4.1 4.2 4.1 nan 4.4 4.6 5.3 5.6 5.8 5.0 6.5 6.5 6.2 3.9 2.7 2.7 2.5 2.4 3.1 2.6 2.5 2.5 2.6 2.5 2.8 2.9 3.0 2.8 2.8
nan 3.3 4.9 5.3 5.0 6.0 6.0 5.0 5.8 6.2 6.5 4.5 4.7 4.5 3.1 nan nan 5.0 nan nan nan 6.0 5.4 5.9 6.1 7.1 nan 6.9 6.8 5.7 4.8 4.0 4.1 3.6 3.0 3.4 3.5 4.5 3.4 3.3 3.1 3.3 3.1 3.1
5.0 5.0 3.7 4.6 4.3 6.7 5.9 nan 0.0 5.0 5.7 4.8 nan 2.5 2.5 nan 5.4 4.7 nan 0.0 nan nan nan nan 3.6 3.0 5.6 5.8 5.0 3.4 3.8 3.9 6.1 5.5 5.2 4.7 3.6 3.7 3.6 3.4 3.4 3.6 3.3 3.4
3.9 3.8 4.4 4.5 4.4 4.1 0.0 2.0 nan 5.3 5.4 2.5 nan 2.5 5.0 nan 0.0 nan nan nan nan nan 3.2 3.4 3.8 3.1 4.1 4.3 4.3 4.3 4.5 4.9 4.8 5.1 5.1 4.4 4.1 3.7 3.4 3.4 3.7 3.4 3.4 3.6
5.3 4.9 4.8 4.8 4.8 6.0 nan 5.0 5.0 3.8 2.5 2.3 2.0 2.5 nan nan nan nan nan nan 5.0 4.0 5.4 5.4 4.4 5.5 5.8 6.1 4.9 5.1 5.3 5.4 5.7 6.0 5.6 5.1 3.9 3.7 3.7 3.0 3.7 3.3 3.4 3.5
5.2 3.9 3.7 4.1 3.5 nan 2.5 nan nan nan 3.0 2.5 2.5 2.5 0.0 nan nan nan nan nan nan 6.0 6.2 6.7 6.3 7.0 7.9 7.1 6.7 7.2 7.4 7.3 7.7 6.0 5.3 4.6 4.6 3.9 3.4 3.0 3.8 3.7 3.4 3.6
3.9 3.7 3.7 4.2 3.6 3.0 0.0 2.5 3.3 5.0 nan 2.5 2.5 2.5 1.7 0.0 nan nan nan 5.0 6.7 7.1 7.7 7.9 8.0 9.0 10.1 9.2 9.2 7.7 8.2 8.3 5.3 5.3 6.5 6.0 5.2 4.8 4.5 3.7 3.4 3.3 3.7 4.0
4.2 4.2 5.2 4.5 4.9 4.6 3.4 2.5 nan nan 5.0 5.0 0.0 2.5 2.5 nan nan 5.0 3.5 4.4 5.9 8.3 10.1 9.9 11.0 11.8 11.2 12.3 12.3 10.7 10.0 7.9 6.9 7.0 9.2 7.3 5.5 4.7 6.2 6.1 4.2 4.5 4.6 3.7
5.9 6.7 4.8 4.1 5.0 4.5 3.4 4.1 4.4 5.3 5.4 3.6 4.2 5.7 5.8 5.7 6.0 7.0 8.1 8.1 8.7 9.5 10.0 11.5 11.6 12.5 13.4 12.9 12.6 11.2 9.0 7.4 7.3 8.6 8.1 6.9 7.0 6.5 6.6 6.7 6.2 nan nan nan